SKYSAT-C3

Last updated on Wed Sep 17 2025 00:02:31 GMT+0000 (Coordinated Universal Time)

1 41774U 16058E 25259.57775062 .00016407 00000+0 40870-3 0 9994 2 41774 96.9451 297.5606 0002454 117.1914 242.9584 15.40301335503820
UTC large
Height (km)
Speed (km/s)
/
Latitude / Longitude
Inclination (degrees)
Orbital Period (minutes)
Azimuth
Elevation
Range (km)
Doppler Factor

Next 0 passes for location: London (51.5072 / 0.1276)

Sorry there are no passes over London.